Volver al catálogo

ASTRA 2E

ActivoComunicacionesGEO
NORAD 39285·PAYLOAD·🇱🇺 Luxembourg

Lanzado Sep 29, 2013 desde Baikonur Cosmodrome

Loading…

TLE

ActualizadoSource: CelesTrak SupGP

Época: Sep 14, 2026, 23:30 UTC

1 39285C 13056A   26257.97916667  .00000240  00000+0  00000+0 0  2576
2 39285   0.0859 309.6608 0002269 218.8788 206.3859  1.00271986    12

Sigue ASTRA 2E en tiempo real con AllMySat

Download on the App Store